Airfield :
LOGIN :

Register | Disclaimer

   EN    FR    IT 

 










Legend :    VFR   Marginal VFR   IFR   Intensive IFR   Very Intensive IFR
Visi :
Ceiling :
>= 8 km
>= 3000ft
5 to 8 km
1000 to 3000 ft
1500m to 5 km
500 to 1000 ft
800 to 1500m
200 to 500 ft
< 800m
< 200 ft
Symbols :   Thunderstorms  Fog  Heavy snow  Heavy precipitations  Wind > 20 kt
SIGMETs :     Misc.  Thunderstorms  Icing  Turbulence  Mountain Waves  Volcanic Ashes







- Airport Elevation : 306 ft
- IATA code : EMA
- Download approach charts


EGNX - Nottingham East Midlands

CURRENT METAR :
  • 182250Z 27008KT 9999 SCT044 04/02 Q1021

EXPIRED METARs :
  • 182220Z 27006KT 9999 BKN043 05/04 Q1021
  • 182150Z 27006KT 9999 SCT037 06/04 Q1020
  • 182120Z 29006KT 9999 FEW029 SCT039 06/04 Q1021
  • 182050Z 28007KT 9999 SCT027 BKN047 06/04 Q1020
  • 182020Z 27006KT 9999 FEW026 BKN033 06/04 Q1020

TAF TAF EGNX
Valid from the 18 at 18:00 until the 19 at 18:00 UTC


181656Z 1818/1918 30008KT 9999 SCT040
BECMG 1915/1918 20010KT
ATIS : +44 1332 852 852 (ext 3201)
No reported NOTAMs for that airfield.



MET'MAP, your aeronautical weather chart ! - Copyright ORBIFLY December 2007 - Disclaimer

ORBIFLY MET'MAP TEAM :

Programming & Development : Alexandra Zaïnal
Concept & Development : Baudouin d'Aumeries
Co-Development & Prog : Marc-Olivier Méhu
Technical & hardware support : Manuel Goepfert

Contact : metmap@orbifly.com




SOURCES & CREDITS :

   NOAA